Location: Frizzleburg
(41.0764°N, 80.4548°W)
Time: 20:20:49
(UTC+00:00)

Cosmos 1634 Rocket - Pass Details

Date: 17 November 2019
Orbit: 959 x 993 km, 82.9° (Epoch: 05 December)

Event Time Altitude Azimuth Distance (km) Brightness Sun altitude
Rises 00:39:17 0° 350° (N) 3,663 7.1 -29.5°
Reaches altitude 10° 00:41:48 10° 349° (N) 2,708 6.4 -30.0°
Maximum altitude 00:47:58 75° 266° (W) 994 4.0 -31.2°
Enters shadow 00:48:43 67° 213° (SSW) 1,038 4.1 -31.3°
Exits shadow 00:56:05 - 180° (S) 3,443 6.8 -32.7°
Sets 00:56:34 0° 180° (S) 3,625 7.0 -32.8°
